[[{"header":{"parameterUnit":"m.s-1","parameterCategory":1,"la1":30.2991,"la2":30.254,"lo1":-89.0895,"lo2":-89.0444,"dy":0.0017,"dx":0.0017,"nx":28,"ny":28,"refTime":"2025-12-29T09:00:00:Z","depth":0,"parameterNumber":2,"parameterNumberName":"U-component_of_WINDS"},"data":[0,0,0,0,0,0,0,0,0,0,0,0,0,0,0,0,0,0,0,0,0,0,0,0,0,0,0,0,0,0,0,0,0,0,0,0,0,0,0,0,0,0,0,0,0,0,0,0,0,0,0,0,0,0,0,0,0,0,1.8989,1.8989,0,1.8998,1.8998,1.8998,1.8987,1.8986,1.8986,1.8986,1.8994,1.8995,1.8995,0,0,0,0,0,0,0,0,0,0,0,0,0,1.8964,1.8965,1.8989,1.8989,1.8989,1.8998,1.8998,1.8998,1.8987,1.8986,1.8986,1.8985,1.8994,1.8995,1.8995,0,0,0,0,0,0,0,0,0,0,0,0,0,1.8974,1.8965,1.8989,1.8985,1.8985,1.8998,1.8998,1.8998,1.8987,1.8986,1.8986,1.8985,1.8994,1.8995,1.8996,1.9013,0,0,1.8998,1.8999,0,0,0,0,0,0,0,0,1.8973,1.8975,1.8985,1.8985,1.8985,1.8991,1.8992,1.9003,1.8987,1.8986,1.8986,1.8985,1.8993,1.8994,1.8997,1.9014,1.9014,1.8998,1.8999,1.8999,1.9,0,0,0,0,0,0,0,1.8973,1.8975,1.8993,1.8986,1.8985,1.8983,1.8984,1.8994,1.8993,1.8986,1.8985,1.8987,1.8993,1.8996,1.8997,1.9014,1.8998,1.8999,1.9,1.9,1.9046,1.9047,0,0,0,0,0,0,1.8973,1.8974,1.8992,1.8993,1.8978,1.8984,1.8985,1.8989,1.8993,1.8993,1.8987,1.8986,1.8995,1.8996,1.8998,1.9019,1.8999,1.9,1.9001,1.9046,1.9046,1.9047,0,0,0,0,0,0,1.8972,1.8974,1.8992,1.8983,1.8985,1.8985,1.899,1.899,1.8993,1.8994,1.8993,1.899,1.8995,1.8996,1.901,1.9019,1.9001,1.9001,1.9045,1.9046,1.9047,1.9061,0,0,0,0,0,0,1.8971,1.8974,1.898,1.8983,1.8986,1.9003,1.8991,1.8991,1.8995,1.8993,1.8997,1.8997,1.8994,1.9008,1.9011,1.902,1.9002,1.9044,1.9045,1.9047,1.906,1.9062,1.9065,0,0,0,0,0,1.8971,1.8984,1.8981,1.8983,1.8994,1.9004,1.9005,1.9002,1.8995,1.9002,1.9003,1.8997,1.9018,1.901,1.9012,1.9022,1.9043,1.9045,1.9046,1.9058,1.9062,1.9065,0,0,0,0,0,0,1.8981,1.8984,1.8981,1.8995,1.9,1.9002,1.901,1.9006,1.9012,1.9011,1.9007,1.9008,1.9022,1.9023,1.9014,1.904,1.9029,1.9032,1.9038,1.9041,1.9043,1.9042,1.9003,0,0,0,0,0,1.8986,1.8994,1.8996,1.9009,1.9011,1.901,1.9015,1.9012,1.9016,1.9018,1.902,1.9024,1.9032,1.9037,1.9044,1.906,1.9061,1.9068,1.9071,1.9073,1.9074,1.9084,1.9087,1.9052,1.9052,1.9052,0,0,1.8994,1.8997,1.9002,1.9011,1.9014,1.9022,1.9012,1.9021,1.9027,1.9019,1.9032,1.9034,1.9038,1.9053,1.906,1.9055,1.9084,1.9075,1.9077,1.9077,1.9086,1.9089,1.9092,1.9053,1.9053,1.9053,0,0,1.9014,1.9017,1.9028,1.9031,1.9036,1.9036,1.9039,1.9043,1.9043,1.9056,1.905,1.9058,1.9072,1.9075,1.9079,1.9102,1.9097,1.9105,1.9117,1.9126,1.9129,1.9132,1.914,1.9143,1.9107,1.9107,1.9107,0,1.9023,1.9036,1.9034,1.9044,1.9048,1.9042,1.9054,1.9058,1.9064,1.9068,1.9062,1.9079,1.9082,1.9098,1.9104,1.9107,1.9111,1.9103,1.9129,1.9131,1.9134,1.9141,1.9144,1.9107,1.9107,1.9107,1.9107,0,1.9048,1.9057,1.9065,1.9073,1.9078,1.9089,1.9089,1.9095,1.9093,1.9093,1.9107,1.911,1.9118,1.9122,1.912,1.9138,1.9135,1.913,1.9119,1.9138,1.9145,1.9148,1.9109,1.9108,1.9108,1.9108,0,0,1.9072,1.908,1.9083,1.9086,1.9092,1.9099,1.9111,1.9119,1.9124,1.913,1.9139,1.9151,1.9146,1.9151,1.9149,1.9157,1.9176,1.9151,1.9151,1.9155,1.9196,1.92,1.9203,1.9173,1.9173,1.9174,1.9196,0,1.9092,1.911,1.911,1.9127,1.9136,1.9132,1.9141,1.9146,1.9148,1.9156,1.9157,1.9166,1.9159,1.9162,1.917,1.9172,1.9184,1.917,1.9181,1.9181,1.9179,1.9207,1.921,1.923,1.9198,1.9199,1.9199,0,1.9116,1.9123,1.9142,1.9147,1.9151,1.916,1.9168,1.9175,1.9181,1.9182,1.9188,1.9185,1.9197,1.9187,1.9204,1.9194,1.9199,1.9201,1.9202,1.9201,1.919,1.9206,1.9237,1.9239,1.9204,1.9203,1.9203,0,1.9131,1.9146,1.9159,1.9162,1.9169,1.9176,1.9179,1.9185,1.919,1.9197,1.9201,1.9209,1.9214,1.9221,1.9221,1.9214,1.9237,1.9228,1.9238,1.9238,1.9242,1.9241,1.9272,1.9247,1.9247,1.9247,1.9247,0,1.9152,1.9164,1.9166,1.9174,1.9187,1.9187,1.92,1.9203,1.9208,1.9217,1.9214,1.9222,1.9222,1.9231,1.9232,1.9245,1.9247,1.9248,1.9248,1.9247,1.9247,1.9249,1.9248,1.9247,1.9247,1.9247,1.9247,0,1.9171,1.9173,1.9187,1.9193,1.9195,1.9204,1.921,1.9218,1.922,1.9231,1.9234,1.9237,1.9247,1.9248,1.926,1.926,1.9276,1.9275,1.9274,1.9274,1.9283,1.9282,1.9316,1.932,1.9293,1.9293,1.9293,0,1.9183,1.9192,1.92,1.9206,1.9209,1.9219,1.9224,1.9225,1.9232,1.924,1.9247,1.9257,1.9265,1.9282,1.9285,1.9294,1.9293,1.9304,1.9294,1.9294,1.9292,1.9291,1.9292,1.9305,1.9306,1.9306,1.9306,0,1.9205,1.9206,1.9215,1.9224,1.9231,1.9238,1.9245,1.925,1.9252,1.9259,1.927,1.9276,1.9289,1.9299,1.9309,1.9312,1.9309,1.931,1.9312,1.9312,1.931,1.9311,1.9278,1.9308,1.9308,1.9308,1.9308,1.9308,1.922,1.9228,1.9235,1.9245,1.9251,1.9258,1.9265,1.9269,1.9278,1.9288,1.9289,1.9301,1.9308,1.932,1.9325,1.9334,1.933,1.9335,1.9335,1.9336,1.9337,1.931,1.9336,1.9336,1.9336,1.9336,1.9336,0,1.9242,1.9246,1.9256,1.9266,1.9274,1.9272,1.928,1.9286,1.9297,1.9304,1.9312,1.9325,1.9335,1.934,1.935,1.9357,1.9356,1.9359,1.9358,1.9359,1.934,1.9336,1.936,1.936,1.936,1.936,1.936,1.936,1.9253,1.9267,1.9269,1.9285,1.929,1.9302,1.9306,1.9313,1.9319,1.9333,1.9342,1.9345,1.9352,1.9363,1.9372,1.9373,1.9377,1.9381,1.9381,1.9363,1.936,1.9358,1.9354,1.9382,1.9382,1.94,1.94,1.94]},{"header":{"parameterUnit":"m.s-1","parameterCategory":1,"la1":30.2991,"la2":30.254,"lo1":-89.0895,"lo2":-89.0444,"dy":0.0017,"dx":0.0017,"nx":28,"ny":28,"refTime":"2025-12-29T09:00:00:Z","depth":0,"parameterNumber":3,"parameterNumberName":"V-component_of_WINDS"},"data":[0,0,0,0,0,0,0,0,0,0,0,0,0,0,0,0,0,0,0,0,0,0,0,0,0,0,0,0,0,0,0,0,0,0,0,0,0,0,0,0,0,0,0,0,0,0,0,0,0,0,0,0,0,0,0,0,0,0,-7.694,-7.6942,0,-7.7139,-7.7141,-7.7143,-7.7076,-7.7071,-7.7067,-7.7063,-7.7261,-7.727,-7.728,0,0,0,0,0,0,0,0,0,0,0,0,0,-7.6496,-7.6505,-7.6939,-7.6942,-7.6945,-7.7138,-7.7141,-7.7144,-7.7076,-7.7071,-7.7066,-7.7061,-7.7258,-7.7269,-7.728,0,0,0,0,0,0,0,0,0,0,0,0,0,-7.6691,-7.6508,-7.6939,-7.6934,-7.6936,-7.7138,-7.7141,-7.7144,-7.7077,-7.7071,-7.7064,-7.7058,-7.7255,-7.7268,-7.7282,-7.7499,0,0,-7.7325,-7.7331,0,0,0,0,0,0,0,0,-7.668,-7.6708,-7.6933,-7.6935,-7.6937,-7.7076,-7.7057,-7.7263,-7.7079,-7.7024,-7.7063,-7.7055,-7.7204,-7.7222,-7.7274,-7.7508,-7.7516,-7.7326,-7.7334,-7.7341,-7.7344,0,0,0,0,0,0,0,-7.6667,-7.6699,-7.7018,-7.6936,-7.6939,-7.6921,-7.6941,-7.7096,-7.7148,-7.7028,-7.7024,-7.7048,-7.7204,-7.726,-7.7278,-7.7519,-7.7326,-7.7338,-7.7347,-7.7352,-7.7941,-7.7948,0,0,0,0,0,0,-7.6653,-7.6688,-7.7012,-7.7024,-7.679,-7.6934,-7.6957,-7.7038,-7.7146,-7.7156,-7.7054,-7.7044,-7.724,-7.7262,-7.7285,-7.7546,-7.734,-7.7354,-7.7362,-7.7934,-7.7943,-7.7951,0,0,0,0,0,0,-7.6644,-7.6682,-7.7004,-7.6855,-7.6894,-7.6949,-7.704,-7.7045,-7.7101,-7.7166,-7.7174,-7.7102,-7.7235,-7.7265,-7.7446,-7.7552,-7.736,-7.7373,-7.7925,-7.7937,-7.7947,-7.807,0,0,0,0,0,0,-7.6631,-7.6679,-7.6764,-7.6857,-7.6903,-7.7164,-7.7046,-7.7054,-7.7126,-7.7116,-7.7213,-7.7223,-7.7232,-7.7426,-7.746,-7.7567,-7.7383,-7.7916,-7.793,-7.7943,-7.8056,-7.8083,-7.8106,0,0,0,0,0,-7.6616,-7.6789,-7.6768,-7.6808,-7.7009,-7.717,-7.7196,-7.7206,-7.7135,-7.7219,-7.726,-7.7219,-7.7534,-7.7445,-7.7483,-7.7596,-7.791,-7.7926,-7.7942,-7.8045,-7.8078,-7.8106,0,0,0,0,0,0,-7.6705,-7.6801,-7.6779,-7.6989,-7.7072,-7.7159,-7.7265,-7.724,-7.7344,-7.733,-7.7335,-7.7358,-7.7545,-7.7588,-7.7487,-7.7811,-7.7711,-7.7736,-7.7776,-7.7808,-7.7833,-7.7818,-7.7395,0,0,0,0,0,-7.6749,-7.6873,-7.695,-7.7127,-7.7171,-7.7211,-7.7282,-7.7282,-7.7368,-7.7402,-7.7457,-7.754,-7.7658,-7.7735,-7.7847,-7.8062,-7.8082,-7.8158,-7.8183,-7.8203,-7.8225,-7.8342,-7.8377,-7.8004,-7.8004,-7.8004,0,0,-7.6841,-7.6909,-7.6987,-7.7147,-7.7212,-7.7339,-7.7241,-7.738,-7.7474,-7.7422,-7.7598,-7.7641,-7.7734,-7.7934,-7.8024,-7.7976,-7.8332,-7.8224,-7.824,-7.8251,-7.8362,-7.8397,-7.8429,-7.8015,-7.8013,-7.8011,0,0,-7.7074,-7.7139,-7.7294,-7.7361,-7.7461,-7.7486,-7.7524,-7.7615,-7.7642,-7.7819,-7.7783,-7.7893,-7.8096,-7.8164,-7.8225,-7.8485,-7.8451,-7.8521,-7.8652,-7.8765,-7.8795,-7.8821,-7.8914,-7.8947,-7.8542,-7.8542,-7.8542,0,-7.7176,-7.7368,-7.7376,-7.7519,-7.759,-7.7551,-7.7707,-7.7771,-7.7902,-7.7951,-7.7895,-7.8149,-7.8209,-7.8424,-7.8487,-7.8538,-7.858,-7.851,-7.879,-7.8816,-7.8841,-7.8929,-7.8964,-7.855,-7.8549,-7.8548,-7.8548,0,-7.7488,-7.7622,-7.7735,-7.7864,-7.7948,-7.8096,-7.8125,-7.8209,-7.8202,-7.8233,-7.8413,-7.8483,-7.8609,-7.866,-7.8653,-7.8874,-7.8841,-7.8788,-7.8687,-7.8884,-7.8967,-7.9001,-7.8561,-7.8558,-7.8556,-7.8554,0,0,-7.7784,-7.7916,-7.7957,-7.8016,-7.8123,-7.8225,-7.8371,-7.8496,-7.8568,-7.8659,-7.8781,-7.8953,-7.8905,-7.8975,-7.8975,-7.9075,-7.9277,-7.901,-7.9012,-7.9057,-7.9524,-7.9564,-7.9603,-7.9255,-7.9261,-7.9266,-7.9516,0,-7.8026,-7.8285,-7.8297,-7.8532,-7.8655,-7.862,-7.8747,-7.8826,-7.8859,-7.8967,-7.9002,-7.9125,-7.9052,-7.9093,-7.9191,-7.9232,-7.937,-7.9214,-7.9367,-7.9373,-7.9346,-7.9647,-7.9689,-7.9922,-7.9549,-7.9554,-7.9558,0,-7.8344,-7.8447,-7.8696,-7.8786,-7.8838,-7.8952,-7.9067,-7.9171,-7.9259,-7.9276,-7.9354,-7.9341,-7.9488,-7.9383,-7.9586,-7.948,-7.9543,-7.9572,-7.9581,-7.9596,-7.9478,-7.967,-7.9996,-8.0031,-7.961,-7.9606,-7.9602,0,-7.8535,-7.8736,-7.891,-7.8961,-7.907,-7.9152,-7.92,-7.9282,-7.9357,-7.9456,-7.9504,-7.962,-7.9683,-7.9771,-7.9788,-7.971,-7.9992,-7.9888,-8.001,-8.001,-8.0071,-8.0067,-8.0413,-8.0111,-8.0111,-8.011,-8.0109,0,-7.8805,-7.8959,-7.8998,-7.9106,-7.9276,-7.9287,-7.9454,-7.9497,-7.957,-7.9684,-7.9659,-7.9766,-7.9782,-7.9893,-7.9907,-8.0073,-8.0101,-8.0118,-8.012,-8.0121,-8.0119,-8.0163,-8.0147,-8.0119,-8.0117,-8.0116,-8.0114,0,-7.9048,-7.908,-7.9269,-7.9357,-7.9383,-7.9504,-7.9579,-7.9681,-7.9711,-7.9856,-7.989,-7.9937,-8.0066,-8.0092,-8.0244,-8.0253,-8.0451,-8.0437,-8.0423,-8.0421,-8.0541,-8.053,-8.0928,-8.098,-8.0644,-8.0647,-8.065,0,-7.9218,-7.9336,-7.9437,-7.9513,-7.9566,-7.9688,-7.9764,-7.9778,-7.9858,-7.9968,-8.0057,-8.0183,-8.0285,-8.0493,-8.0539,-8.0655,-8.0643,-8.0774,-8.066,-8.0658,-8.0646,-8.0639,-8.065,-8.0796,-8.08,-8.0803,-8.0805,0,-7.9518,-7.9528,-7.964,-7.9758,-7.985,-7.9943,-8.0031,-8.0094,-8.012,-8.0211,-8.0343,-8.0423,-8.0579,-8.0704,-8.082,-8.0868,-8.0842,-8.0841,-8.0875,-8.0878,-8.0865,-8.0874,-8.0483,-8.0832,-8.0829,-8.0827,-8.0826,-8.0825,-7.973,-7.9833,-7.9921,-8.0046,-8.0114,-8.0197,-8.0298,-8.0341,-8.0453,-8.0582,-8.0583,-8.0728,-8.0812,-8.0965,-8.1021,-8.1133,-8.1091,-8.1141,-8.1154,-8.1166,-8.1178,-8.0847,-8.1154,-8.1153,-8.1153,-8.1152,-8.1151,0,-8.0028,-8.0083,-8.0198,-8.0324,-8.0422,-8.039,-8.0485,-8.0569,-8.0698,-8.0779,-8.0881,-8.1033,-8.1155,-8.1211,-8.1331,-8.141,-8.1401,-8.1441,-8.1435,-8.1447,-8.1208,-8.1166,-8.1447,-8.1447,-8.1447,-8.1446,-8.1446,-8.1446,-8.0195,-8.0368,-8.0389,-8.0595,-8.0648,-8.0791,-8.0849,-8.0925,-8.099,-8.1162,-8.1264,-8.13,-8.1371,-8.1496,-8.1606,-8.1619,-8.1664,-8.1711,-8.1718,-8.1494,-8.1464,-8.1435,-8.1396,-8.1721,-8.1721,-8.1948,-8.195,-8.1952]}]]